GW1480 Weather Reports


time (UTC)temp
C
wind
direction
speed
KPH
gust
KPH
rain 1hr
cm
rain 24hr
cm
rain mn
cm
humidity
%
barometer
mb
20260505101527 14 108 3.2 8.0 0.00 0.00 0.00 81 1014.2
20260505100942 14 182 4.8 11.3 0.00 0.00 0.00 78 1013.8
20260505100313 15 102 3.2 3.2 0.00 0.00 0.00 77 1013.8
20260505095739 14 209 0.0 0.0 0.00 0.00 0.00 77 1013.5
20260505095146 14 125 3.2 3.2 0.00 0.00 0.00 80 1013.5
20260505094528 14 49 6.4 8.0 0.00 0.00 0.00 74 1013.5
20260505093910 14 83 4.8 8.0 0.00 0.00 0.00 79 1013.5
20260505093331 14 120 4.8 8.0 0.00 0.00 0.00 79 1013.5
20260505092734 15 79 4.8 8.0 0.00 0.00 0.00 79 1013.5
20260505092112 15 175 3.2 8.0 0.00 0.00 0.00 79 1013.5
20260505091543 15 109 6.4 8.0 0.00 0.00 0.00 79 1013.2
20260505090932 15 214 1.6 3.2 0.00 0.00 0.00 79 1013.2
20260505090330 15 150 1.6 3.2 0.00 0.00 0.00 75 1013.5
20260505085725 16 80 6.4 11.3 0.00 0.00 0.00 74 1013.2
20260505085123 16 147 1.6 3.2 0.00 0.00 0.00 76 1012.8
20260505084548 16 97 6.4 8.0 0.00 0.00 0.00 73 1013.2
20260505083930 16 168 0.0 3.2 0.00 0.00 0.00 72 1013.2
20260505082713 16 109 4.8 8.0 0.00 0.00 0.00 72 1012.8
20260505081509 16 215 4.8 8.0 0.00 0.00 0.00 68 1013.2
20260505080952 16 98 1.6 8.0 0.00 0.00 0.00 73 1013.2
20260505080308 16 143 3.2 8.0 0.00 0.00 0.00 73 1012.8
20260505075729 16 79 3.2 8.0 0.00 0.00 0.00 70 1013.2
20260505075111 16 185 4.8 8.0 0.00 0.00 0.00 72 1013.2
20260505073939 16 68 6.4 11.3 0.00 0.00 0.00 75 1012.8
20260505073351 16 102 4.8 8.0 0.00 0.00 0.00 71 1012.8
20260505072150 16 108 6.4 11.3 0.00 0.00 0.00 67 1012.8
20260505070926 16 126 4.8 8.0 0.00 0.00 0.00 70 1012.8
20260505070310 15 99 4.8 8.0 0.00 0.00 0.00 73 1012.8
20260505065739 15 117 3.2 8.0 0.00 0.00 0.00 76 1012.8
20260505064531 14 172 4.8 8.0 0.00 0.00 0.00 69 1013.2
20260505063912 13 71 0.0 3.2 0.00 0.00 0.00 75 1012.8
20260505063352 13 158 4.8 8.0 0.00 0.00 0.00 82 1013.2
20260505062752 12 103 4.8 8.0 0.00 0.00 0.00 84 1012.8
20260505062120 12 83 6.4 8.0 0.00 0.00 0.00 88 1012.8
20260505060932 12 105 4.8 8.0 0.00 0.00 0.00 90 1012.8
20260505060347 12 258 0.0 3.2 0.00 0.00 0.00 91 1012.8
20260505055730 12 188 0.0 0.0 0.00 0.00 0.00 91 1012.8
20260505055120 12 198 0.0 0.0 0.00 0.00 0.00 91 1012.8
20260505054545 12 196 0.0 0.0 0.00 0.00 0.00 91 1012.8
20260505053930 12 135 0.0 0.0 0.00 0.00 0.00 91 1012.8
20260505053309 12 60 0.0 3.2 0.00 0.00 0.00 92 1012.8
20260505051537 12 205 0.0 0.0 0.00 0.00 0.00 92 1012.8
20260505050326 12 89 3.2 3.2 0.00 0.00 0.00 92 1012.8
20260505041526 12 159 1.6 3.2 0.00 0.00 0.00 91 1012.1
20260505040919 12 208 0.0 0.0 0.00 0.00 0.00 91 1012.1
20260505035138 13 205 0.0 0.0 0.00 0.00 0.03 91 1012.1
20260505034556 13 171 0.0 0.0 0.00 0.00 0.03 91 1012.1
20260505033913 13 179 0.0 0.0 0.00 0.00 0.03 91 1012.1
20260505033320 13 190 0.0 0.0 0.00 0.00 0.03 90 1012.1
20260505032719 13 198 0.0 0.0 0.00 0.00 0.03 91 1012.1
20260505032128 13 217 0.0 0.0 0.00 0.00 0.03 91 1012.1
20260505031514 13 189 0.0 0.0 0.00 0.00 0.03 91 1012.1
20260505030941 13 182 0.0 0.0 0.00 0.00 0.03 91 1012.1
20260505030344 13 181 0.0 0.0 0.00 0.00 0.03 91 1012.1
20260505025743 13 143 0.0 0.0 0.00 0.00 0.03 90 1012.1
20260505025129 13 180 0.0 0.0 0.00 0.00 0.03 90 1012.1
20260505024538 13 164 0.0 0.0 0.00 0.00 0.03 90 1011.8
20260505022123 14 192 0.0 0.0 0.00 0.00 0.03 89 1011.8
20260505021511 14 203 0.0 0.0 0.00 0.00 0.03 89 1011.8
20260505020926 14 219 0.0 0.0 0.00 0.00 0.03 89 1011.8
20260505020317 14 161 1.6 3.2 0.00 0.00 0.03 88 1011.8
20260505015154 15 117 0.0 3.2 0.00 0.00 0.03 88 1011.8
20260505014530 15 116 0.0 0.0 0.00 0.00 0.03 87 1011.8
20260505013918 15 238 0.0 0.0 0.00 0.00 0.03 86 1011.8
20260505013318 15 121 0.0 0.0 0.00 0.00 0.03 85 1011.8
20260505012711 16 166 0.0 0.0 0.00 0.00 0.03 85 1011.8
20260505012147 16 118 0.0 0.0 0.00 0.00 0.03 84 1011.8
20260505011536 16 175 0.0 0.0 0.00 0.00 0.03 83 1011.8
20260505010914 16 162 0.0 0.0 0.00 0.00 0.03 83 1011.8
20260505010331 16 156 0.0 0.0 0.00 0.00 0.03 82 1011.8
20260505005751 17 164 0.0 0.0 0.00 0.00 0.03 82 1011.5
20260505005121 17 207 0.0 0.0 0.00 0.00 0.03 82 1011.8
20260505004534 17 190 0.0 0.0 0.00 0.00 0.03 81 1011.5
20260505003929 18 148 0.0 0.0 0.00 0.00 0.03 80 1011.5
20260505003354 18 204 0.0 0.0 0.00 0.00 0.03 80 1011.5
20260505002111 19 201 0.0 0.0 0.00 0.00 0.03 77 1011.5
20260505001513 20 190 0.0 0.0 0.00 0.00 0.03 75 1011.8
20260505000916 21 209 0.0 0.0 0.00 0.00 0.03 78 1011.8
20260505000318 22 230 0.0 0.0 0.00 0.00 0.03 77 1011.8
20260504235715 22 229 0.0 0.0 0.00 0.00 0.03 74 1011.5
20260504234528 24 186 0.0 0.0 0.00 0.00 0.03 57 1011.8
20260504233933 24 205 0.0 0.0 0.00 0.00 0.03 62 1011.8
20260504233341 25 60 6.4 11.3 0.00 0.00 0.03 56 1011.5
20260504232715 25 211 0.0 0.0 0.00 0.00 0.03 59 1011.5
20260504232153 25 231 0.0 0.0 0.00 0.00 0.03 47 1011.5
20260504231519 25 219 0.0 0.0 0.00 0.00 0.03 53 1011.5
20260504230952 25 221 0.0 0.0 0.00 0.00 0.03 54 1011.5
20260504225714 25 59 3.2 8.0 0.00 0.00 0.03 48 1011.8
20260504225147 25 28 0.0 0.0 0.00 0.00 0.03 57 1011.5
20260504224511 25 237 0.0 0.0 0.00 0.00 0.03 50 1011.5
20260504223935 25 277 0.0 3.2 0.00 0.00 0.03 47 1011.8
20260504223316 25 233 0.0 0.0 0.00 0.00 0.03 55 1011.8
20260504222753 26 273 6.4 11.3 0.00 0.00 0.03 48 1011.8
20260504222112 26 272 0.0 3.2 0.00 0.00 0.03 49 1011.8
20260504221522 26 332 0.0 3.2 0.00 0.00 0.03 47 1011.8
20260504220927 26 96 6.4 11.3 0.00 0.00 0.03 48 1011.8
20260504220316 26 237 6.4 11.3 0.00 0.00 0.03 46 1011.8
20260504215123 27 320 1.6 8.0 0.00 0.00 0.03 48 1011.8
20260504214552 26 265 8.0 16.1 0.00 0.00 0.03 46 1011.8
20260504213951 26 107 0.0 0.0 0.00 0.00 0.03 45 1011.8
20260504211527 25 207 3.2 8.0 0.00 0.00 0.03 50 1012.1
20260504210950 25 200 3.2 8.0 0.00 0.00 0.03 51 1012.1
20260504210330 25 146 0.0 0.0 0.00 0.00 0.03 53 1012.1
20260504205734 25 20 6.4 8.0 0.00 0.00 0.03 53 1012.1
20260504205140 24 247 0.0 3.2 0.00 0.00 0.03 55 1012.5
20260504204542 24 258 4.8 8.0 0.00 0.00 0.03 53 1012.1
20260504203931 24 166 3.2 8.0 0.00 0.00 0.03 52 1012.5
20260504202734 24 74 19.3 24.1 0.00 0.00 0.03 52 1012.8
20260504202114 23 79 4.8 8.0 0.00 0.00 0.03 51 1012.5
20260504201541 23 285 3.2 8.0 0.00 0.00 0.03 50 1012.5
20260504200320 23 273 3.2 8.0 0.00 0.00 0.03 51 1012.8
20260504195752 22 295 0.0 3.2 0.00 0.00 0.03 52 1013.2
20260504195124 22 173 0.0 3.2 0.00 0.00 0.03 54 1013.2
20260504194552 22 232 3.2 8.0 0.00 0.00 0.03 55 1013.5
20260504193936 21 189 6.4 11.3 0.00 0.00 0.03 54 1013.5
20260504193337 21 86 6.4 11.3 0.00 0.00 0.03 56 1013.5
20260504192722 21 225 1.6 8.0 0.00 0.00 0.03 57 1013.5
20260504192139 20 152 6.4 11.3 0.00 0.00 0.03 60 1013.5
20260504191533 20 254 0.0 3.2 0.00 0.00 0.03 63 1013.8
20260504190949 20 229 0.0 3.2 0.00 0.00 0.03 63 1013.8
20260504185733 22 271 3.2 8.0 0.00 0.00 0.00 65 1014.2
20260504184535 22 242 6.4 11.3 0.00 0.00 0.00 54 1013.8
20260504183943 22 214 6.4 8.0 0.00 0.00 0.00 52 1013.8
20260504183329 22 77 3.2 3.2 0.00 0.00 0.00 51 1013.8
20260504182741 22 350 1.6 3.2 0.00 0.00 0.00 52 1013.5
20260504182142 22 49 6.4 11.3 0.00 0.00 0.00 51 1013.5
20260504181512 22 85 3.2 8.0 0.00 0.00 0.00 53 1013.5
20260504180923 22 142 1.6 8.0 0.00 0.00 0.00 52 1013.5
20260504180320 21 43 6.4 8.0 0.00 0.00 0.00 54 1013.5
20260504175748 21 316 6.4 8.0 0.00 0.00 0.00 54 1013.5
20260504174534 21 97 6.4 8.0 0.00 0.00 0.00 54 1013.8
20260504173931 21 238 6.4 11.3 0.00 0.00 0.00 55 1014.2
20260504172713 21 18 1.6 3.2 0.00 0.00 0.00 53 1013.8
20260504172134 21 268 3.2 8.0 0.00 0.00 0.00 59 1014.2
20260504171554 20 312 6.4 11.3 0.00 0.00 0.00 58 1014.2
20260504170919 20 152 0.0 3.2 0.00 0.00 0.00 57 1014.5
20260504170335 20 97 6.4 11.3 0.00 0.00 0.00 60 1014.5
20260504160347 18 265 1.6 3.2 0.00 0.00 0.00 69 1015.9
20260504150915 16 78 3.2 8.0 0.00 0.00 0.00 68 1016.2
20260504140937 15 324 1.6 3.2 0.00 0.00 0.00 68 1017.2
20260504140321 15 173 1.6 3.2 0.00 0.00 0.00 67 1016.9
20260504130318 15 40 6.4 11.3 0.00 0.00 0.00 62 1016.2
20260504110322 5 213 3.2 8.0 0.00 0.00 0.00 94 1015.9